Tracking 21612 objects as of 20-Oct-2020
HD Live streaming from Space Station
objects crossing your sky now

COSMOS 1912

Track COSMOS 1912 now!
10-day predictions
COSMOS 1912 is classified as:


NORAD ID: 18791
Int'l Code: 1988-002D
Perigee: 1,400.5 km
Apogee: 1,418.5 km
Inclination: 82.6 °
Period: 113.8 minutes
Semi major axis: 7780 km
RCS: 1.1982 m2 (large)
Launch date: January 15, 1988
Source: Commonwealth of Independent States (former USSR) (CIS)
Launch site: PLESETSK MISSILE AND SPACE COMPLEX (PKMTR)
aabbcc
Your satellite tracking list
Your tracking list is empty




NASA's NSSDC Master Catalog

Two Line Element Set (TLE):
1 18791U 88002D   20293.15151972  .00000006  00000-0 -28038-4 0  9993
2 18791  82.6047 118.6271 0011559 129.1820   7.2737 12.65001898512773
Source of the keplerian elements: AFSPC